SCP
0 0 0 0 0 0 0 0 0 0 0 0 0 0 0 0 0 0 0 0 0 0 0 0 0 0 0 0 0 0 0 0 0 0 0 0 0 0 0 0 0 0 0 0
0 0 0 0 0 0 0 0 0 0 0 0 0 0 0 0 0 0 0 0 0 0 0 0 0 0 0 0 0 0 0 0 0 0 0 0 0 0 0 0 0 0 0 0
0 0 0 0 0 0 0 0 0 0 0 0 0 0 0 0 0 0 0 0 0 0 0 0 0 0 0 0 0 0 0 0 0 0 0 0 0 0 0 0 0 0 0 0
0 0 0 0 0 0 0 0 0 0 0 0 0 0 0 0 0 0 0 0 0 0 0 0 0 0 0 0 0 0 0 0 0 0 0 0 0 0 0 0 0 0 0 0
0 0 0 0 0 0 0 0 0 0 0 0 0 0 0 0 0 0 0 0 0 0 0 0 0 0 0 0 0 0 0 0 0 0 0 0 0 0 0 0 0 0 0 0
0 0 0 0 0 0 0 0 0 0 0 0 0 0 0 0 0 0 0 0 0 0 0 0 0 0 0 0 0 0 0 0 0 0 0 0 0 0 0 0 0 0 0 0
0 0 0 0 0 0 0 0 0 0 0 0 0 0 0 0 0 0 0 0 0 0 0 0 0 0 0 0 0 0 0 0 0 0 0 0 0 0 0 0 0 0 0 0
0 0 0 0 0 0 0 0 0 0 0 0 0 0 0 0 0 0 0 0 0 0 0 0 0 0 0 0 0 0 0 0 0 0 0 0 0 0 0 0 0 0 0 0
0 0 0 0 0 0 0 0 0 0 0 0 0 0 0 0 0 0 0 0 0 0 0 0 0 0 0 0 0 0 0 0 0 0 0 0 0 0 0 0 0 0 0 0
-0 0 0 0 0 0 0 0 0 0 0 0 0 0 0 0 0 0 0 0 0 0 0 0 0 0 0 0 0 0 0 0 0 0 0 0 0 0 0 0 0 0 0 0
0 0 0 0 0 0 0 0 0 0 0 0 0 0 0 0 0 0 0 0 0 0 0 0 0 0 0 0 0 0 0 0 0 0 0 0 0 0 0 0 0 0 0 0
0 0 0 0 0 0 0 0 0 0 0 0 0 0 0 0 0 0 0 0 0 0 0 0 0 0 0 0 0 0 0 0 0 0 0 0 0 0 0 0 0 0 0 0
0 0 0 0 0 0 0 0 0 0 0 0 0 0 0 0 0 0 0 0 0 0 0 0 0 0 0 0 0 0 0 0 0 0 0 0 0 0 0 0 0 0 0 0
0 0 0 0 0 0 0 0 0 0 0 0 0 0 0 0 0 0 0 0 0 0 0 0 0 0 0 0 0 0 0 0 0 0 0 0 0 0 0 0 0 0 0 0
0 0 0 0 0 0 0 0 0 0 0 0 0 0 0 0 0 0 0 0 0 0 0 0 0 0 0 0 0 0 0 0 0 0 0 0 0 0 0 0 0 0 0 0
0 0 0 0 0 0 0 0 0 0 0 0 0 0 0 0 0 0 0 0 0 0 0 0 0 0 0 0 0 0 0 0 0 0 0 0 0 0 0 0 0 0 0 0
0 0 0 0 0 0 0 0 0 0 0 0 0 0 0 0 0 0 0 0 0 0 0 0 0 0 0 0 0 0 0 0 0 0 0 0 0 0 0 0 0 0 0 0
0 0 0 0 0 0 0 0 0 0 0 0 0 0 0 0 0 0 0 0 0 0 0 0 0 0 0 0 0 0 0 0 0 0 0 0 0 0 0 0 0 0 0 0
0 0 0 0 0 0 0 0 0 0 0 0 0 0 0 0 0 0 0 0 0 0 0 0 0 0 0 0 0 0 0 0 0 0 0 0 0 0 0 0 0 0 0 0
0 0 0 0 0 0 0 0 0 0 0 0 0 0 0 0 0 0 0 0 0 0 0 0 0 0 0 0 0 0 0 0 0 0 0 0 0 0 0 0 0 0 0 0
0 0 0 0 0 0 0 0 0 0 0 0 0 0 0 0 0 0 0 0 0 0 0 0 0 0 0 0 0 0 0 0 0 0 0 0 0 0 0 0 0 0 0 0
0 0 0 0 0 0 0 0 0 0 0 0 0 0 0 0 0 0 0 0 0 0 0 0 0 0 0 0 0 0 0 0 0 0 0 0 0 0 0 0 0 0 0 0
0 0 0 0 0 0 0 0 0 0 0 0 0 0 0 0 0 0 0 0 0 0 0 0 0 0 0 0 0 0 0 0 0 0 0 0 0 0 0 0 0 0 0 0
0 0 0 0 0 0 0 0 0 0 0 0 0 0 0 0 0 0 0 0 0 0 0 0 0 0 0 0 0 0 0 0 0 0 0 0 0 0 0 0 0 0 0 0
0 0 0 0 0 0 0 0 0 0 0 0 0 0 0 0 0 0 0 0 0 0 0 0 0 0 0 0 0 0 0 0 0 0 0 0 0 0 0 0 0 0 0 0
0 0 0 0 0 0 0 0 0 0 0 0 0 0 0 0 0 0 0 0 0 0 0 0 0 0 0 0 0 0 0 0 0 0 0 0 0 0 0 0 0 0 0 0
0 0 0 0 0 0 0 0 0 0 0 0 0 0 0 0 0 0 0 0 0 0 0 0 0 0 0 0 0 0 0 0 0 0 0 0 0 0 0 0 0 0 0 0
Wind_Speed_500mb
45 40 33 28 25 24 19 8 7 11 14 6 8 4 8 7 10 7 5 4 6 7 7 7 5 8 6 10 5 3 3 4 6 2 8 5 1 6 4 5 4 6 5 13
50 44 39 30 23 18 15 9 13 14 20 7 8 5 5 5 10 9 10 6 1 3 8 8 7 8 7 12 7 5 9 4 6 2 4 2 6 9 8 3 5 10 4 11
55 50 42 34 25 18 15 10 5 11 20 18 5 10 10 10 8 7 5 7 7 8 7 1 11 9 8 12 2 3 5 5 9 10 10 6 9 11 18 17 8 8 28 33
58 55 48 38 30 23 13 10 9 5 6 14 13 21 18 12 12 8 17 5 12 14 9 10 10 10 9 9 10 6 2 9 10 17 19 16 22 28 24 25 30 20 45 34
59 60 52 44 37 31 23 9 9 6 10 7 12 13 16 20 12 17 10 9 20 13 9 13 14 15 13 10 12 11 9 4 6 9 20 17 26 37 31 32 35 38 46 50
50 56 59 52 46 41 23 23 34 10 6 7 9 11 12 20 25 18 3 22 12 14 4 17 17 21 18 17 15 14 11 8 5 8 4 8 19 19 26 10 13 12 21 11
47 44 59 59 56 54 47 31 18 11 8 11 11 3 10 16 25 12 13 15 14 15 17 19 14 14 11 8 9 6 12 10 4 6 4 6 9 6 5 9 17 19 13 9
55 47 55 59 65 61 57 55 36 10 8 21 17 14 9 19 19 10 15 8 12 30 15 6 6 1 2 6 12 5 3 7 5 6 8 17 9 3 8 10 8 6 11 8
51 55 45 65 67 69 66 63 53 33 11 14 31 23 31 10 10 6 9 22 28 18 6 6 10 10 10 8 6 3 2 5 4 5 7 10 4 9 9 9 9 7 16 16
50 59 50 50 74 79 76 69 66 52 26 39 30 14 23 21 20 8 16 18 13 16 6 5 8 9 1 9 12 11 8 5 15 15 11 15 9 25 14 4 7 11 13 14
44 51 63 49 62 80 85 80 78 67 34 41 31 31 20 27 32 10 24 14 4 3 8 8 8 9 13 6 10 14 17 16 9 7 9 19 36 14 12 10 15 14 10 6
40 44 52 60 44 64 90 84 74 70 55 22 50 51 42 47 47 32 50 9 18 25 7 5 5 5 5 6 7 8 8 14 12 19 11 12 43 15 16 8 13 10 11 10
43 43 46 52 53 47 94 94 70 69 59 51 57 41 56 51 40 39 23 17 25 23 18 17 5 8 8 9 12 11 6 16 4 2 8 20 37 15 10 6 11 11 10 7
42 42 41 44 53 46 69 115 95 78 29 18 24 46 68 56 65 49 48 34 39 28 29 9 6 6 22 7 2 9 9 18 11 8 10 16 13 18 16 12 12 9 4 3
40 37 35 40 42 43 43 106 106 100 69 16 13 31 46 55 61 57 54 48 42 26 17 7 7 11 7 4 1 7 19 11 10 9 5 13 12 19 14 16 13 7 1 5
39 37 35 26 24 45 21 45 70 103 99 28 7 12 20 34 34 39 45 44 40 23 17 10 11 14 20 8 7 3 26 17 16 15 10 14 26 23 19 17 12 5 2 6
37 31 34 32 14 22 23 7 8 73 81 27 8 5 10 27 27 23 23 33 15 13 16 12 13 11 21 4 6 17 19 17 16 18 25 22 22 16 19 14 9 3 1 5
33 29 29 25 23 16 18 19 7 26 40 14 8 4 11 24 10 9 15 12 13 8 8 11 8 13 6 7 10 21 20 21 22 19 11 12 22 25 19 12 6 3 2 11
26 27 20 15 19 14 16 23 29 29 9 11 8 11 7 21 9 10 8 8 4 5 2 5 8 5 8 2 24 27 28 20 26 23 21 24 23 22 15 9 7 2 7 15
24 32 9 7 11 26 32 18 13 9 4 5 5 13 6 13 9 6 9 4 5 4 3 10 4 5 13 11 13 20 30 21 30 35 28 25 21 17 13 8 2 5 11 13
29 10 7 6 25 13 8 7 4 6 5 6 7 10 9 9 4 5 3 5 2 5 4 3 5 5 7 14 22 25 25 28 28 18 18 17 14 15 12 7 4 8 9 13
18 12 14 14 1 2 3 3 4 2 5 6 6 11 11 11 9 7 3 5 2 5 11 2 5 2 21 23 27 28 28 26 25 19 18 17 17 13 9 6 5 5 8 13
20 7 6 4 5 2 2 4 2 5 8 10 11 7 9 9 8 10 3 6 6 14 1 5 2 16 22 26 29 30 28 25 23 23 20 17 12 9 6 5 2 4 9 14
4 4 7 2 4 6 6 5 5 6 18 31 28 13 8 7 6 1 7 4 4 4 3 7 3 22 25 25 27 28 29 25 23 21 17 12 8 6 4 2 2 5 9 13
4 3 5 5 9 13 10 12 12 16 26 24 19 15 9 5 7 5 6 4 4 6 4 3 9 19 25 28 29 28 27 24 20 16 12 8 6 4 2 3 5 7 10 12
6 10 8 8 8 6 10 17 12 20 20 14 11 6 6 6 5 4 4 8 6 4 3 9 16 24 26 28 26 23 20 18 15 12 8 7 6 5 5 5 6 7 9 12
7 9 20 15 21 16 11 12 11 15 6 4 3 7 3 4 5 3 2 2 3 8 6 9 10 24 27 26 23 20 17 15 11 9 8 8 7 7 6 6 7 9 10 11
Wind_Direction_500mb
267 272 279 284 288 294 295 263 243 215 196 173 238 199 148 143 156 169 227 318 38 142 171 146 125 141 70 156 194 109 117 82 261 33 118 68 334 282 315 151 292 258 183 264
260 261 268 273 277 287 290 255 261 226 196 210 195 155 114 219 149 190 193 149 9 286 159 133 124 103 154 173 215 163 179 203 305 155 29 343 218 180 243 350 71 217 254 265
255 254 255 258 259 263 272 280 261 210 205 246 245 160 181 170 205 163 213 114 130 156 154 211 152 145 182 180 138 121 42 282 215 214 266 347 239 215 201 207 210 223 237 266
247 248 248 248 245 243 240 231 263 221 204 228 226 172 164 146 173 225 191 178 222 189 147 150 185 141 133 165 176 135 162 224 243 264 273 275 270 263 249 240 238 234 269 268
239 241 240 236 239 236 227 250 256 290 289 272 217 181 204 174 147 157 205 234 190 211 183 193 179 162 167 175 157 159 181 213 47 276 261 270 271 259 254 249 255 255 262 270
237 229 235 232 229 226 219 233 254 259 207 213 206 203 192 192 146 203 149 192 139 201 214 92 82 82 81 134 148 178 164 159 151 256 68 317 275 252 215 204 230 225 237 258
282 239 226 227 227 229 225 232 227 227 253 203 210 255 178 182 181 148 168 173 173 155 141 111 94 84 82 124 83 132 161 144 177 278 315 256 251 163 110 211 258 223 261 281
286 276 230 228 224 228 226 228 224 231 264 204 230 206 176 153 147 123 141 128 153 142 120 101 122 318 158 99 40 326 343 144 224 250 217 282 263 208 171 178 276 251 236 100
280 282 257 232 231 224 228 231 229 224 271 230 219 187 187 164 164 111 106 136 146 147 125 126 191 219 213 203 131 50 93 31 206 169 243 265 177 159 128 105 270 36 104 99
276 271 279 246 234 223 223 227 227 222 240 256 216 199 191 185 167 127 134 159 156 167 138 152 185 222 133 192 198 169 145 174 214 233 260 278 154 156 144 138 229 126 107 121
272 280 269 276 237 234 217 226 228 217 231 244 220 214 194 184 180 152 140 115 165 151 170 170 208 207 209 193 171 178 167 167 199 192 228 267 147 133 187 135 122 153 156 184
276 270 279 264 275 239 217 221 226 223 220 236 230 232 219 209 200 183 170 180 157 169 136 185 162 181 158 206 232 179 204 195 183 193 217 135 172 121 149 136 161 179 174 221
273 270 277 268 267 252 225 215 220 212 220 240 249 240 225 220 205 198 166 200 178 187 181 158 141 215 146 182 224 200 231 225 224 91 226 176 186 191 222 218 200 199 196 221
269 265 278 274 256 264 231 215 216 212 195 224 234 227 228 228 225 220 214 219 203 199 194 164 147 188 195 205 275 206 185 149 203 272 276 130 156 197 219 194 177 170 172 290
271 271 267 276 276 269 247 214 213 220 196 199 194 214 220 221 221 222 220 219 215 189 163 180 188 162 148 176 101 218 188 183 173 226 158 116 140 175 183 168 167 170 208 326
266 271 266 267 279 252 252 209 211 214 209 218 160 185 202 210 208 213 213 210 204 187 165 171 190 183 186 182 213 257 186 178 191 184 163 149 152 156 166 174 169 168 289 315
264 257 266 248 277 246 236 174 213 201 204 202 121 157 157 170 177 185 184 189 181 174 166 179 154 173 189 223 224 145 155 172 172 160 144 126 151 163 172 170 158 158 348 342
256 245 262 275 237 213 199 216 187 178 192 144 124 109 151 161 139 130 154 152 149 150 146 131 141 144 203 247 147 153 151 149 150 164 173 163 163 157 156 154 146 125 350 341
222 237 242 225 207 204 168 163 173 184 177 124 134 145 147 157 112 127 121 139 127 134 126 113 159 136 220 211 162 176 173 165 162 148 139 139 148 147 149 154 152 146 334 329
196 194 199 233 199 161 167 170 164 158 136 104 84 115 120 147 133 103 114 135 126 141 61 129 203 249 131 137 143 173 169 168 160 145 145 157 156 160 160 167 185 315 317 326
196 192 180 189 156 147 167 128 140 147 108 67 96 113 118 143 136 118 110 120 141 159 160 214 195 260 110 151 146 160 161 157 159 163 158 164 169 169 170 180 261 302 322 334
182 165 128 154 59 70 79 61 137 36 110 109 111 102 112 115 115 106 99 104 189 129 153 145 250 94 142 153 149 152 159 161 154 149 149 153 158 167 187 214 250 288 323 331
149 130 113 115 16 170 192 161 76 114 132 136 134 116 104 107 98 87 130 109 79 128 78 237 261 142 156 155 154 150 152 153 150 148 152 153 161 184 216 215 211 320 334 334
107 124 105 352 96 55 34 18 48 61 107 107 106 76 73 84 70 76 79 53 140 149 230 238 70 165 165 164 161 156 151 155 156 156 156 164 189 204 205 211 317 342 337 335
78 61 86 67 111 76 79 78 89 104 121 109 99 81 86 60 86 43 113 108 169 203 235 77 114 171 173 168 167 168 164 161 161 163 171 195 206 203 216 302 328 341 339 342
61 54 77 107 97 74 61 70 90 118 114 91 76 97 76 60 109 110 135 141 198 189 121 163 173 176 177 175 172 169 165 165 171 178 196 197 200 235 271 300 312 337 348 345
52 52 73 78 73 79 96 94 117 121 32 48 66 72 100 119 58 58 40 135 43 51 91 122 176 172 172 174 172 170 172 177 190 209 206 205 214 243 279 297 312 333 340 337
Wind_Speed_850mb
45 40 33 28 25 24 19 8 7 11 14 6 8 4 8 7 10 7 5 4 6 7 7 7 5 8 6 10 5 3 3 4 6 2 8 5 1 6 4 5 4 6 5 13
50 44 39 30 23 18 15 9 13 14 20 7 8 5 5 5 10 9 10 6 1 3 8 8 7 8 7 12 7 5 9 4 6 2 4 2 6 9 8 3 5 10 4 11
55 50 42 34 25 18 15 10 5 11 20 18 5 10 10 10 8 7 5 7 7 8 7 1 11 9 8 12 2 3 5 5 9 10 10 6 9 11 18 17 8 8 28 33
58 55 48 38 30 23 13 10 9 5 6 14 13 21 18 12 12 8 17 5 12 14 9 10 10 10 9 9 10 6 2 9 10 17 19 16 22 28 24 25 30 20 45 34
59 60 52 44 37 31 23 9 9 6 10 7 12 13 16 20 12 17 10 9 20 13 9 13 14 15 13 10 12 11 9 4 6 9 20 17 26 37 31 32 35 38 46 50
50 56 59 52 46 41 23 23 34 10 6 7 9 11 12 20 25 18 3 22 12 14 4 17 17 21 18 17 15 14 11 8 5 8 4 8 19 19 26 10 13 12 21 11
47 44 59 59 56 54 47 31 18 11 8 11 11 3 10 16 25 12 13 15 14 15 17 19 14 14 11 8 9 6 12 10 4 6 4 6 9 6 5 9 17 19 13 9
55 47 55 59 65 61 57 55 36 10 8 21 17 14 9 19 19 10 15 8 12 30 15 6 6 1 2 6 12 5 3 7 5 6 8 17 9 3 8 10 8 6 11 8
51 55 45 65 67 69 66 63 53 33 11 14 31 23 31 10 10 6 9 22 28 18 6 6 10 10 10 8 6 3 2 5 4 5 7 10 4 9 9 9 9 7 16 16
50 59 50 50 74 79 76 69 66 52 26 39 30 14 23 21 20 8 16 18 13 16 6 5 8 9 1 9 12 11 8 5 15 15 11 15 9 25 14 4 7 11 13 14
44 51 63 49 62 80 85 80 78 67 34 41 31 31 20 27 32 10 24 14 4 3 8 8 8 9 13 6 10 14 17 16 9 7 9 19 36 14 12 10 15 14 10 6
40 44 52 60 44 64 90 84 74 70 55 22 50 51 42 47 47 32 50 9 18 25 7 5 5 5 5 6 7 8 8 14 12 19 11 12 43 15 16 8 13 10 11 10
43 43 46 52 53 47 94 94 70 69 59 51 57 41 56 51 40 39 23 17 25 23 18 17 5 8 8 9 12 11 6 16 4 2 8 20 37 15 10 6 11 11 10 7
42 42 41 44 53 46 69 115 95 78 29 18 24 46 68 56 65 49 48 34 39 28 29 9 6 6 22 7 2 9 9 18 11 8 10 16 13 18 16 12 12 9 4 3
40 37 35 40 42 43 43 106 106 100 69 16 13 31 46 55 61 57 54 48 42 26 17 7 7 11 7 4 1 7 19 11 10 9 5 13 12 19 14 16 13 7 1 5
39 37 35 26 24 45 21 45 70 103 99 28 7 12 20 34 34 39 45 44 40 23 17 10 11 14 20 8 7 3 26 17 16 15 10 14 26 23 19 17 12 5 2 6
37 31 34 32 14 22 23 7 8 73 81 27 8 5 10 27 27 23 23 33 15 13 16 12 13 11 21 4 6 17 19 17 16 18 25 22 22 16 19 14 9 3 1 5
33 29 29 25 23 16 18 19 7 26 40 14 8 4 11 24 10 9 15 12 13 8 8 11 8 13 6 7 10 21 20 21 22 19 11 12 22 25 19 12 6 3 2 11
26 27 20 15 19 14 16 23 29 29 9 11 8 11 7 21 9 10 8 8 4 5 2 5 8 5 8 2 24 27 28 20 26 23 21 24 23 22 15 9 7 2 7 15
24 32 9 7 11 26 32 18 13 9 4 5 5 13 6 13 9 6 9 4 5 4 3 10 4 5 13 11 13 20 30 21 30 35 28 25 21 17 13 8 2 5 11 13
29 10 7 6 25 13 8 7 4 6 5 6 7 10 9 9 4 5 3 5 2 5 4 3 5 5 7 14 22 25 25 28 28 18 18 17 14 15 12 7 4 8 9 13
18 12 14 14 1 2 3 3 4 2 5 6 6 11 11 11 9 7 3 5 2 5 11 2 5 2 21 23 27 28 28 26 25 19 18 17 17 13 9 6 5 5 8 13
20 7 6 4 5 2 2 4 2 5 8 10 11 7 9 9 8 10 3 6 6 14 1 5 2 16 22 26 29 30 28 25 23 23 20 17 12 9 6 5 2 4 9 14
4 4 7 2 4 6 6 5 5 6 18 31 28 13 8 7 6 1 7 4 4 4 3 7 3 22 25 25 27 28 29 25 23 21 17 12 8 6 4 2 2 5 9 13
4 3 5 5 9 13 10 12 12 16 26 24 19 15 9 5 7 5 6 4 4 6 4 3 9 19 25 28 29 28 27 24 20 16 12 8 6 4 2 3 5 7 10 12
6 10 8 8 8 6 10 17 12 20 20 14 11 6 6 6 5 4 4 8 6 4 3 9 16 24 26 28 26 23 20 18 15 12 8 7 6 5 5 5 6 7 9 12
7 9 20 15 21 16 11 12 11 15 6 4 3 7 3 4 5 3 2 2 3 8 6 9 10 24 27 26 23 20 17 15 11 9 8 8 7 7 6 6 7 9 10 11
Wind_Direction_850mb
267 272 279 284 288 294 295 263 243 215 196 173 238 199 148 143 156 169 227 318 38 142 171 146 125 141 70 156 194 109 117 82 261 33 118 68 334 282 315 151 292 258 183 264
260 261 268 273 277 287 290 255 261 226 196 210 195 155 114 219 149 190 193 149 9 286 159 133 124 103 154 173 215 163 179 203 305 155 29 343 218 180 243 350 71 217 254 265
255 254 255 258 259 263 272 280 261 210 205 246 245 160 181 170 205 163 213 114 130 156 154 211 152 145 182 180 138 121 42 282 215 214 266 347 239 215 201 207 210 223 237 266
247 248 248 248 245 243 240 231 263 221 204 228 226 172 164 146 173 225 191 178 222 189 147 150 185 141 133 165 176 135 162 224 243 264 273 275 270 263 249 240 238 234 269 268
239 241 240 236 239 236 227 250 256 290 289 272 217 181 204 174 147 157 205 234 190 211 183 193 179 162 167 175 157 159 181 213 47 276 261 270 271 259 254 249 255 255 262 270
237 229 235 232 229 226 219 233 254 259 207 213 206 203 192 192 146 203 149 192 139 201 214 92 82 82 81 134 148 178 164 159 151 256 68 317 275 252 215 204 230 225 237 258
282 239 226 227 227 229 225 232 227 227 253 203 210 255 178 182 181 148 168 173 173 155 141 111 94 84 82 124 83 132 161 144 177 278 315 256 251 163 110 211 258 223 261 281
286 276 230 228 224 228 226 228 224 231 264 204 230 206 176 153 147 123 141 128 153 142 120 101 122 318 158 99 40 326 343 144 224 250 217 282 263 208 171 178 276 251 236 100
280 282 257 232 231 224 228 231 229 224 271 230 219 187 187 164 164 111 106 136 146 147 125 126 191 219 213 203 131 50 93 31 206 169 243 265 177 159 128 105 270 36 104 99
276 271 279 246 234 223 223 227 227 222 240 256 216 199 191 185 167 127 134 159 156 167 138 152 185 222 133 192 198 169 145 174 214 233 260 278 154 156 144 138 229 126 107 121
272 280 269 276 237 234 217 226 228 217 231 244 220 214 194 184 180 152 140 115 165 151 170 170 208 207 209 193 171 178 167 167 199 192 228 267 147 133 187 135 122 153 156 184
276 270 279 264 275 239 217 221 226 223 220 236 230 232 219 209 200 183 170 180 157 169 136 185 162 181 158 206 232 179 204 195 183 193 217 135 172 121 149 136 161 179 174 221
273 270 277 268 267 252 225 215 220 212 220 240 249 240 225 220 205 198 166 200 178 187 181 158 141 215 146 182 224 200 231 225 224 91 226 176 186 191 222 218 200 199 196 221
269 265 278 274 256 264 231 215 216 212 195 224 234 227 228 228 225 220 214 219 203 199 194 164 147 188 195 205 275 206 185 149 203 272 276 130 156 197 219 194 177 170 172 290
271 271 267 276 276 269 247 214 213 220 196 199 194 214 220 221 221 222 220 219 215 189 163 180 188 162 148 176 101 218 188 183 173 226 158 116 140 175 183 168 167 170 208 326
266 271 266 267 279 252 252 209 211 214 209 218 160 185 202 210 208 213 213 210 204 187 165 171 190 183 186 182 213 257 186 178 191 184 163 149 152 156 166 174 169 168 289 315
264 257 266 248 277 246 236 174 213 201 204 202 121 157 157 170 177 185 184 189 181 174 166 179 154 173 189 223 224 145 155 172 172 160 144 126 151 163 172 170 158 158 348 342
256 245 262 275 237 213 199 216 187 178 192 144 124 109 151 161 139 130 154 152 149 150 146 131 141 144 203 247 147 153 151 149 150 164 173 163 163 157 156 154 146 125 350 341
222 237 242 225 207 204 168 163 173 184 177 124 134 145 147 157 112 127 121 139 127 134 126 113 159 136 220 211 162 176 173 165 162 148 139 139 148 147 149 154 152 146 334 329
196 194 199 233 199 161 167 170 164 158 136 104 84 115 120 147 133 103 114 135 126 141 61 129 203 249 131 137 143 173 169 168 160 145 145 157 156 160 160 167 185 315 317 326
196 192 180 189 156 147 167 128 140 147 108 67 96 113 118 143 136 118 110 120 141 159 160 214 195 260 110 151 146 160 161 157 159 163 158 164 169 169 170 180 261 302 322 334
182 165 128 154 59 70 79 61 137 36 110 109 111 102 112 115 115 106 99 104 189 129 153 145 250 94 142 153 149 152 159 161 154 149 149 153 158 167 187 214 250 288 323 331
149 130 113 115 16 170 192 161 76 114 132 136 134 116 104 107 98 87 130 109 79 128 78 237 261 142 156 155 154 150 152 153 150 148 152 153 161 184 216 215 211 320 334 334
107 124 105 352 96 55 34 18 48 61 107 107 106 76 73 84 70 76 79 53 140 149 230 238 70 165 165 164 161 156 151 155 156 156 156 164 189 204 205 211 317 342 337 335
78 61 86 67 111 76 79 78 89 104 121 109 99 81 86 60 86 43 113 108 169 203 235 77 114 171 173 168 167 168 164 161 161 163 171 195 206 203 216 302 328 341 339 342
61 54 77 107 97 74 61 70 90 118 114 91 76 97 76 60 109 110 135 141 198 189 121 163 173 176 177 175 172 169 165 165 171 178 196 197 200 235 271 300 312 337 348 345
52 52 73 78 73 79 96 94 117 121 32 48 66 72 100 119 58 58 40 135 43 51 91 122 176 172 172 174 172 170 172 177 190 209 206 205 214 243 279 297 312 333 340 337